Regional Weather Roundup
Issued by NWS

Home | Current Version | Previous Version | Text Only | Print | Product List | Glossary Off
Versions: 1 2 3 4 5 6 7 8 9 10 11 12 13 14 15 16 17 18 19 20 21 22 23 24 25 26 27 28 29 30 31 32 33 34 35 36 37 38 39 40 41 42 43 44 45 46 47 48 49 50

000
ASUS43 KMPX 021110
RWRMN
WEATHER ROUNDUP FOR MINNESOTA
NATIONAL WEATHER SERVICE TWIN CITIES/CHANHASSEN MN
600 AM CDT TUE JUN 02 2015


NOTE: "FAIR" INDICATES FEW OR NO CLOUDS BELOW 12,000 FEET WITH NO
SIGNIFICANT WEATHER AND/OR OBSTRUCTIONS TO VISIBILITY. N/A MEANS
CURRENT SKY AND/OR WEATHER CONDITIONS ARE NOT AVAILABLE.

MNZ060>063-068>070-021200-
   Twin Cities Metro

CITY           SKY/WX    TMP DP  RH WIND       PRES   REMARKS
TWIN CITIES    MOCLDY    54  41  61 SE8       30.08S
ST PAUL        MOCLDY    54  44  69 SE8       30.09F
CRYSTAL        MOCLDY    57  41  55 SE10      30.06S
BLAINE         MOCLDY    57  43  58 SE7       30.07F
LAKEVILLE      MOCLDY    52  43  71 SE5       30.08S
EDEN PRAIRIE   MOCLDY    55  42  61 SE7       30.06S
SOUTH ST PAUL  MOCLDY    54  41  62 SE5       30.09S
LAKE ELMO      FAIR      52  43  71 SE5       30.10S
$$
MNZ001>005-007-008-013>017-022>024-027-028-021200-
   Northwest Minnesota

CITY           SKY/WX    TMP DP  RH WIND       PRES   REMARKS
BEMIDJI        CLOUDY    59  41  50 S12G17    29.93F
HALLOCK        CLOUDY    55  52  88 S9        29.83S
ROSEAU         MOCLDY    59  52  77 S13       29.86S
WARROAD        CLOUDY    59  50  72 S8G17     29.87F
THIEF RVR FALL CLOUDY    57  52  82 SE12      29.87S
CROOKSTON      TSTM      57  54  88 S10       29.86F
FOSSTON        LGT RAIN  54  50  87 SE13G18   29.91F
DETROIT LAKES  CLOUDY    59  46  63 SE10      29.93S
MOORHEAD       CLOUDY    63  48  59 SE17      29.88R
PARK RAPIDS    CLOUDY    57  41  55 SE9       29.95F
MAHNOMEN       CLOUDY    62  46  55 S10G22    29.89S
$$
MNZ006-009>011-018-025>026-021200-
   North Central Minnesota

CITY           SKY/WX    TMP DP  RH WIND       PRES   REMARKS
BAUDETTE       CLOUDY    57  43  59 SE10      29.91F
INTL FALLS     CLOUDY    55  39  54 S5        29.97R
WASKISH        CLOUDY    57  46  67 CALM      29.94F
BIG FORK       CLOUDY    55  41  58 S9        29.99S
LONGVILLE      CLOUDY    55  43  62 SE7       29.98F
GRAND RAPIDS   MOCLDY    46  37  71 SE6       30.02S
CRANE LAKE     CLOUDY    54  37  54 S7        30.02S
ORR            CLOUDY    54  36  50 S9G17     29.99S
COOK           CLOUDY    55  39  54 S8G16     30.02F
WALKER         FAIR      56  41  57 S6        29.96F
$$
MNZ012-019>021-037-021200-
   Northeast Minnesota

CITY           SKY/WX    TMP DP  RH WIND       PRES   REMARKS
DULUTH         PTCLDY    47  37  68 SE7       30.08F
ELY            MOCLDY    54  37  54 S7        30.06S
HIBBING        MOCLDY    44  37  76 SE6       30.05F
EVELETH        MOCLDY    43  36  75 CALM      30.06F
DULUTH HARBOR  FAIR      45  39  81 E9        30.11S
TWO HARBORS    MOCLDY    46  39  76 NE3       30.08F
SILVER BAY     MOCLDY    43  37  81 CALM      30.09S
GRAND MARAIS     N/A     46  34  62 NE5       30.13S
G MARAIS ARPRT CLOUDY    46  32  57 SE3       30.12S
$$
MNZ029>031-032-039>041-046>048-054>057-064-021200-
   West Central Minnesota

CITY           SKY/WX    TMP DP  RH WIND       PRES   REMARKS
FERGUS FALLS   CLOUDY   N/A N/A N/A S17       29.91R
WHEATON        CLOUDY    55  48  76 SE17G24   29.91R
MORRIS         CLOUDY    57  48  72 SE15      29.92S
ALEXANDRIA     CLOUDY    59  45  59 S15       29.97F
ELBOW LAKE     FAIR      58  47  66 S17G24    29.92R
WADENA         CLOUDY    57  43  58 S9        29.95S
GLENWOOD       MOCLDY    59  46  63 S17       29.98S
APPLETON       CLOUDY    61  48  63 S13G20    29.93S
BENSON         MOCLDY    59  45  58 S13       29.95F
ORTONVILLE     CLOUDY    59  48  67 S12       29.91S
MADISON        CLOUDY    59  48  67 S14       29.93F
WILLMAR        FAIR      57  46  67 SE10      30.01F
$$
MNZ033>034-036-042>043-049>051-058-059-021200-
   Central Minnesota

CITY           SKY/WX    TMP DP  RH WIND       PRES   REMARKS
ST CLOUD       MOCLDY    51  43  74 SE6       30.03F
SAUK CENTRE    FAIR      55  44  66 SE12      29.99F
PAYNESVILLE    MOCLDY    54  44  68 E9        30.02F
AITKIN         MOCLDY    57  43  58 S9        30.01S
PINE RIVER     CLOUDY    55  45  67 SE8       30.02F
BRAINERD       CLOUDY    56  42  59 S10       30.00F
STAPLES        CLOUDY    55  43  62 SE8       29.97F
LONG PRAIRIE   FAIR      54  43  66 SE10      29.98F
LITTLE FALLS   CLOUDY    52  41  66 SE7       30.01S
LITCHFIELD     MOCLDY    57  46  67 SE6       30.04R
BUFFALO        MOCLDY    55  42  60 SE6       30.06S
MAPLE LAKE     MOCLDY    57  45  64 S6        30.05S
$$
MNZ037-044-045-052-053-021200-
   East Central Minnesota

CITY           SKY/WX    TMP DP  RH WIND       PRES   REMARKS
PRINCETON      MOCLDY    55  41  58 SE7       30.04F
MORA           PTCLDY    52  39  62 SE5       30.07F
CAMBRIDGE      PTCLDY    55  43  62 SE8       30.04F
RUSH CITY      PTCLDY    51  42  71 SE8       30.07F
MOOSE LAKE     PTCLDY    37  36  93 NE5       30.06S
HINCKLEY       FAIR      48  43  81 SE3       30.07F
CLOQUET        PTCLDY    41  36  81 E3        30.08S
MCGREGOR       PTCLDY    48  41  76 S6        30.04F
$$
MNZ071>073-080-081-089-090-097-098-021200-
   Southwest Minnesota

CITY           SKY/WX    TMP DP  RH WIND       PRES   REMARKS
MONTEVIDEO     MOCLDY    59  48  67 S13G18    29.97F
GRANITE FALLS  MOCLDY    58  48  68 SE13      30.00S
CANBY          CLOUDY    60  51  71 S12       29.95S
MARSHALL       CLOUDY    59  46  63 S13       29.98R
REDWOOD FALLS  CLOUDY    56  46  69 S10       30.01S
OLIVIA         MOCLDY    54  43  66 S10       30.01S
PIPESTONE      MOCLDY    57  50  77 S13G20    29.97F
WINDOM         CLOUDY    57  52  82 S8        30.04R
WORTHINGTON    CLOUDY    55  48  76 S15       30.03F
JACKSON        CLOUDY    55  54  94 S12       30.05S
TRACY          CLOUDY    58  49  73 S13       30.00S
SLAYTON        CLOUDY    55  50  83 S14       30.02S
$$
MNZ065>067-074>077-082>085-091>093-021200-
   South Central Minnesota

CITY           SKY/WX    TMP DP  RH WIND       PRES   REMARKS
MANKATO        MOCLDY    55  45  67 S8        30.07R
NEW ULM        MOCLDY    55  48  76 SE8       30.04S
ST JAMES       MOCLDY    57  54  88 SE12      30.06R
FAIRMONT       MOCLDY    55  46  71 S13       30.06S
GLENCOE        MOCLDY    57  48  73 SE5       30.06R
FARIBAULT      MOCLDY    55  43  62 SE9       30.08S
OWATONNA       PTCLDY    55  41  58 SE10      30.09S
WASECA         MOCLDY    52  43  71 SE8       30.10R
ALBERT LEA     PTCLDY    54  45  71 SE8       30.09F
$$
MNZ078>079-086>088-094>096-021200-
   Southeast Minnesota

CITY           SKY/WX    TMP DP  RH WIND       PRES   REMARKS
ROCHESTER      PTCLDY    49  43  80 SE10      30.14S
RED WING       MOCLDY    55  41  58 SE12      30.10F
STANTON        MOCLDY    55  41  60 SE10G16   30.07F
DODGE CENTER   PTCLDY    50  45  81 SE9       30.11F
WINONA         CLEAR     50  41  71 CALM      30.16S
AUSTIN         PTCLDY    52  45  76 SE3       30.11S
PRESTON        PTCLDY    48  40  74 SE5       30.14F
$$
ABBREVIATIONS USED IN REMARKS
   TC - TEMPERATURES IN CELSIUS
  WCI - WIND CHILL INDEX
   HX - HEAT INDEX
  VSB - VISIBILITY
$$



USA.gov is the U.S. government's official web portal to all federal, state and local government web resources and services.